Location: Pardubice
(50.0330°N, 15.7830°E)
Time: 10:40:25
(UTC+02:00)

Explorer 7 - All Passes

Search period start: 07 October 2024 00:00
Search period end: 17 October 2024 00:00
Orbit: 460 x 607 km, 50.3° (Epoch: 06 October)

Date Brightness Start Highest point End Pass type
(mag) Time Alt. Az. Time Alt. Az. Time Alt. Az.
07 Oct - 00:04:55 10° W 00:08:39 38° SSW 00:12:13 10° SE night (unlit)
07 Oct - 17:19:18 10° SSE 17:20:55 12° SE 17:22:33 10° ESE daylight
07 Oct - 18:55:33 10° SW 18:59:40 42° SSE 19:03:38 10° E visible
07 Oct - 20:34:42 10° W 20:39:00 89° S 20:43:05 10° E visible
07 Oct - 22:14:21 10° W 22:18:31 84° SSW 22:22:29 10° ESE visible
07 Oct - 23:54:04 10° W 23:57:42 33° SSW 00:01:11 10° SSE night (unlit)
08 Oct - 17:07:30 10° S 17:09:52 14° SE 17:12:13 10° ESE daylight
08 Oct - 18:44:29 10° SW 18:48:41 48° SSE 18:52:44 10° E visible
08 Oct - 20:23:46 10° W 20:28:04 88° N 20:32:10 10° E visible
08 Oct - 22:03:25 10° W 22:07:36 79° SSW 22:11:34 10° ESE visible
08 Oct - 23:43:11 10° W 23:46:42 29° SW 23:50:03 10° SSE night (unlit)
09 Oct - 16:55:54 10° S 16:58:47 17° SE 17:01:37 10° E daylight
09 Oct - 18:33:24 10° SW 18:37:41 54° SSE 18:41:48 10° E daylight
09 Oct - 20:12:47 10° W 20:17:06 86° N 20:21:13 10° E visible
09 Oct - 21:52:25 10° W 21:56:36 73° SSW 22:00:34 10° ESE visible
09 Oct - 23:32:17 10° W 23:35:38 25° SW 23:38:51 10° SSE night (unlit)
10 Oct - 16:44:25 10° S 16:47:39 20° SE 16:50:51 10° E daylight
10 Oct - 18:22:18 10° WSW 18:26:38 60° SSE 18:30:48 10° E daylight
10 Oct - 20:01:46 10° W 20:06:06 85° N 20:10:13 10° E visible
10 Oct - 21:41:24 10° W 21:45:35 67° SSW 21:49:32 10° ESE visible
10 Oct - 23:21:23 10° W 23:24:31 21° SW 23:27:32 10° SSE night (unlit)
11 Oct - 16:32:58 10° SSW 16:36:29 23° SE 16:39:58 10° E daylight
11 Oct - 18:11:10 10° WSW 18:15:33 66° SSE 18:19:45 10° E daylight
11 Oct - 19:50:42 10° W 19:55:02 85° N 19:59:11 10° E visible
11 Oct - 21:30:19 10° W 21:34:29 60° SSW 21:38:26 10° ESE visible
11 Oct - 23:10:29 10° W 23:13:20 18° SW 23:16:06 10° S night (unlit)
12 Oct - 16:21:32 10° SSW 16:25:17 27° SE 16:28:59 10° E daylight
12 Oct - 18:00:01 10° WSW 18:04:25 72° SSE 18:08:39 10° E daylight
12 Oct - 19:39:35 10° W 19:43:56 86° N 19:48:05 10° E visible
12 Oct - 21:19:12 10° W 21:23:20 54° SSW 21:27:15 10° SE visible
12 Oct - 22:59:37 10° W 23:02:06 16° SW 23:04:31 10° S night (unlit)
13 Oct - 16:10:07 10° SSW 16:14:03 31° SSE 16:17:55 10° E daylight
13 Oct - 17:48:49 10° WSW 17:53:15 78° SSE 17:57:31 10° E daylight
13 Oct - 19:28:25 10° W 19:32:48 88° NNE 19:36:57 10° E visible
13 Oct - 21:08:03 10° W 21:12:09 48° SSW 21:16:02 10° SE visible
13 Oct - 22:48:49 10° WSW 22:50:49 13° SW 22:52:45 10° SSW visible
14 Oct - 15:58:42 10° SW 16:02:47 36° SSE 16:06:47 10° E daylight
14 Oct - 17:37:35 10° WSW 17:42:02 83° SSE 17:46:20 10° E daylight
14 Oct - 19:17:13 10° W 19:21:35 90° S 19:25:46 10° E visible
14 Oct - 20:56:51 10° W 21:00:53 42° SSW 21:04:44 10° SE visible
14 Oct - 22:38:16 10° WSW 22:39:27 11° SW 22:40:37 10° SSW visible
15 Oct - 14:11:24 10° SSE 14:12:49 11° SE 14:14:14 10° ESE daylight
15 Oct - 15:47:17 10° SW 15:51:28 40° SSE 15:55:35 10° E daylight
15 Oct - 17:26:20 10° WSW 17:30:47 87° S 17:35:05 10° E daylight
15 Oct - 19:05:57 10° W 19:10:20 86° SSW 19:14:32 10° ESE visible
15 Oct - 20:45:37 10° W 20:49:35 37° SSW 20:53:20 10° SE visible
16 Oct - 13:59:10 10° SSE 14:01:24 14° SE 14:03:37 10° ESE daylight
16 Oct - 15:35:51 10° SW 15:40:08 46° SSE 15:44:20 10° E daylight
16 Oct - 17:15:02 10° W 17:19:29 90° N 17:23:49 10° E daylight
16 Oct - 18:54:39 10° W 18:59:02 82° SSW 19:03:14 10° ESE visible
16 Oct - 20:34:22 10° W 20:38:13 33° SSW 20:41:52 10° SSE visible
